Weather History for Ogallala, NE

Change the Weather History Date:

Wednesday, November 21, 2012

  Actual Average Record
Temperature  
Mean Temperature 48 °F -  
Max Temperature 75 °F 47 °F 75 °F (2012)
Min Temperature 20 °F 19 °F -8 °F (1964)
Degree Days  
Heating Degree Days 18    
Moisture  
Dew Point 21 °F    
Average Humidity 51    
Maximum Humidity 85    
Minimum Humidity 12    
Precipitation  
Precipitation 0.00 in - - ()
Sea Level Pressure  
Sea Level Pressure 29.90 in    
Wind  
Wind Speed 2 mph (WSW)    
Max Wind Speed 10 mph    
Max Gust Speed -    
Visibility 10 miles    
Events      
Averages and records for this station are not official NWS values.
T = Trace of Precipitation, MM = Missing Value Source: NWS Daily Summary

Daily Weather History Graph

Daily Weather History Graph

Search for Another Location

Airport:

Trip Planner

Search our weather history database for the weather conditions in past years. The results will help you decide how hot, cold, wet, or windy it might be!

Date:

Astronomy

Nov. 21, 2012 Rise Set
Actual Time 6:42 AM MST 4:23 PM MST
Civil Twilight 6:12 AM MST 4:53 PM MST
Nautical Twilight 5:38 AM MST 5:27 PM MST
Astronomical Twilight 5:05 AM MST 5:59 PM MST
Moon 12:43 PM MST (11/21) 12:00 AM MST (11/21)
Length of Visible Light 10h 40m
Length of Day
9h 40m
Waxing Gibbous, 62% of the Moon is Illuminated
Nov 21
Waxing Gibbous
Nov 28
Full
Dec 6
Last Quarter
Dec 13
New
Dec 19
First Quarter

Hourly Weather History & Observations

Time (MST) Temp. Windchill Dew Point Humidity Pressure Visibility Wind Dir Wind Speed Gust Speed Precip Events Conditions
12:15 AM 29.1 °F - 18.3 °F 64% 30.04 in 10.0 mi Calm Calm - N/A   Clear
12:35 AM 31.8 °F - 20.1 °F 62% 30.04 in 10.0 mi Calm Calm - N/A   Clear
12:55 AM 31.1 °F - 18.7 °F 60% 30.04 in 10.0 mi Calm Calm - N/A   Clear
1:15 AM 29.7 °F - 20.7 °F 69% 30.03 in 10.0 mi Calm Calm - N/A   Clear
1:35 AM 28.2 °F - 19.0 °F 68% 30.03 in 10.0 mi Calm Calm - N/A   Clear
1:55 AM 27.5 °F - 18.7 °F 69% 30.03 in 10.0 mi Calm Calm - N/A   Clear
2:15 AM 25.9 °F - 18.1 °F 73% 30.02 in 10.0 mi Calm Calm - N/A   Clear
2:35 AM 25.7 °F - 18.7 °F 75% 30.02 in 10.0 mi Calm Calm - N/A   Clear
2:55 AM 28.4 °F - 18.5 °F 66% 30.02 in 10.0 mi Calm Calm - N/A   Clear
3:15 AM 24.6 °F - 18.0 °F 76% 30.01 in 10.0 mi Calm Calm - N/A   Clear
3:35 AM 23.7 °F - 17.6 °F 77% 30.00 in 10.0 mi Calm Calm - N/A   Clear
3:55 AM 23.0 °F - 16.5 °F 76% 29.99 in 10.0 mi Calm Calm - N/A   Clear
4:15 AM 24.4 °F 18.6 °F 17.6 °F 75% 29.98 in 10.0 mi West 4.6 mph - N/A   Clear
4:35 AM 21.2 °F 12.6 °F 15.8 °F 80% 29.99 in 10.0 mi WSW 6.9 mph - N/A   Clear
4:55 AM 20.8 °F - 16.0 °F 81% 30.00 in 10.0 mi Calm Calm - N/A   Clear
5:15 AM 21.9 °F - 16.9 °F 81% 29.98 in 10.0 mi Calm Calm - N/A   Clear
5:35 AM 23.7 °F - 17.8 °F 78% 29.98 in 10.0 mi Calm Calm - N/A   Clear
5:55 AM 22.1 °F 15.9 °F 16.7 °F 80% 29.98 in 10.0 mi WSW 4.6 mph - N/A   Clear
6:15 AM 20.7 °F 11.9 °F 16.2 °F 83% 29.98 in 10.0 mi WSW 6.9 mph - N/A   Clear
6:35 AM 21.7 °F 15.5 °F 17.4 °F 83% 29.98 in 10.0 mi West 4.6 mph - N/A   Clear
6:55 AM 21.4 °F 15.1 °F 17.4 °F 85% 29.98 in 10.0 mi WSW 4.6 mph - N/A   Clear
7:15 AM 23.5 °F 19.1 °F 18.9 °F 82% 29.98 in 10.0 mi West 3.5 mph - N/A   Clear
7:35 AM 26.4 °F 22.4 °F 20.8 °F 79% 29.98 in 10.0 mi West 3.5 mph - N/A   Clear
7:55 AM 29.3 °F 25.6 °F 22.6 °F 76% 29.98 in 10.0 mi West 3.5 mph - N/A   Clear
8:15 AM 32.4 °F 26.0 °F 24.6 °F 73% 29.98 in 10.0 mi WSW 6.9 mph - N/A   Clear
8:35 AM 36.3 °F 32.5 °F 25.5 °F 65% 29.97 in 10.0 mi WSW 4.6 mph - N/A   Clear
8:55 AM 40.1 °F 36.1 °F 26.4 °F 58% 29.97 in 10.0 mi WSW 5.8 mph - N/A   Clear
9:15 AM 43.3 °F 41.7 °F 26.6 °F 52% 29.96 in 10.0 mi WSW 3.5 mph - N/A   Clear
9:35 AM 45.9 °F 43.6 °F 27.3 °F 48% 29.96 in 10.0 mi WSW 4.6 mph - N/A   Clear
9:55 AM 48.7 °F - 27.7 °F 44% 29.96 in 10.0 mi WSW 6.9 mph - N/A   Clear
10:15 AM 52.2 °F - 28.0 °F 39% 29.95 in 10.0 mi WSW 4.6 mph - N/A   Clear
10:35 AM 55.0 °F - 27.5 °F 35% 29.94 in 10.0 mi WSW 5.8 mph - N/A   Clear
10:55 AM 57.7 °F - 26.8 °F 31% 29.93 in 10.0 mi West 5.8 mph - N/A   Clear
11:15 AM 60.1 °F - 27.1 °F 29% 29.91 in 10.0 mi West 3.5 mph - N/A   Clear
11:35 AM 62.4 °F - 27.0 °F 26% 29.89 in 10.0 mi Calm Calm - N/A   Clear
11:55 AM 65.5 °F - 26.4 °F 23% 29.87 in 10.0 mi Calm Calm - N/A   Clear
12:15 PM 67.6 °F - 25.7 °F 21% 29.86 in 10.0 mi West 3.5 mph - N/A   Clear
12:35 PM 69.8 °F - 22.6 °F 17% 29.85 in 10.0 mi Calm Calm - N/A   Clear
12:55 PM 71.2 °F - 22.1 °F 16% 29.84 in 10.0 mi Calm Calm - N/A   Clear
1:15 PM 73.6 °F - 20.1 °F 13% 29.83 in 10.0 mi SE 8.1 mph - N/A   Clear
1:35 PM 74.5 °F - 19.2 °F 12% 29.82 in 10.0 mi SSE 4.6 mph - N/A   Clear
1:55 PM 75.2 °F - 18.3 °F 12% 29.81 in 10.0 mi South 8.1 mph - N/A   Clear
2:15 PM 74.7 °F - 18.5 °F 12% 29.82 in 10.0 mi South 10.4 mph - N/A   Clear
2:35 PM 73.9 °F - 19.2 °F 13% 29.81 in 10.0 mi South 8.1 mph - N/A   Clear
2:55 PM 72.7 °F - 20.1 °F 14% 29.82 in 10.0 mi South 10.4 mph - N/A   Clear
3:15 PM 70.9 °F - 20.5 °F 15% 29.81 in 10.0 mi South 9.2 mph - N/A   Clear
3:35 PM 69.4 °F - 22.5 °F 17% 29.81 in 10.0 mi SSW 8.1 mph - N/A   Clear
3:55 PM 66.0 °F - 23.0 °F 20% 29.81 in 10.0 mi South 5.8 mph - N/A   Clear
4:15 PM 63.7 °F - 23.2 °F 21% 29.80 in 10.0 mi SSW 6.9 mph - N/A   Clear
4:35 PM 59.7 °F - 23.9 °F 25% 29.81 in 10.0 mi Calm Calm - N/A   Clear
4:55 PM 55.6 °F - 23.4 °F 29% 29.81 in 10.0 mi Calm Calm - N/A   Clear
5:15 PM 55.8 °F - 23.9 °F 29% 29.82 in 10.0 mi Calm Calm - N/A   Clear
5:35 PM 52.5 °F - 23.2 °F 32% 29.81 in 10.0 mi Calm Calm - N/A   Clear
5:55 PM 52.3 °F - 22.8 °F 32% 29.81 in 10.0 mi Calm Calm - N/A   Clear
6:15 PM 43.9 °F 42.3 °F 21.7 °F 41% 29.81 in 10.0 mi WNW 3.5 mph - N/A   Clear
6:35 PM 43.0 °F - 21.4 °F 42% 29.81 in 10.0 mi Calm Calm - N/A   Clear
6:55 PM 43.7 °F 42.1 °F 21.2 °F 41% 29.81 in 10.0 mi West 3.5 mph - N/A   Clear
7:15 PM 40.8 °F - 21.7 °F 47% 29.81 in 10.0 mi Calm Calm - N/A   Clear
7:35 PM 38.5 °F - 22.5 °F 53% 29.81 in 10.0 mi Calm Calm - N/A   Clear
7:55 PM 38.1 °F - 21.6 °F 51% 29.81 in 10.0 mi Calm Calm - N/A   Clear
8:15 PM 37.4 °F - 20.5 °F 51% 29.80 in 10.0 mi Calm Calm - N/A   Clear
8:35 PM 36.5 °F - 20.5 °F 52% 29.80 in 10.0 mi Calm Calm - N/A   Clear
8:55 PM 36.0 °F - 20.1 °F 53% 29.80 in 10.0 mi Calm Calm - N/A   Clear
9:15 PM 34.3 °F - 20.8 °F 58% 29.81 in 10.0 mi Calm Calm - N/A   Clear
9:35 PM 33.8 °F 30.8 °F 21.6 °F 61% 29.81 in 10.0 mi West 3.5 mph - N/A   Clear
9:55 PM 32.9 °F 29.8 °F 21.0 °F 62% 29.80 in 10.0 mi WSW 3.5 mph - N/A   Clear
10:15 PM 32.4 °F - 20.5 °F 62% 29.81 in 10.0 mi Calm Calm - N/A   Clear
10:35 PM 31.8 °F 26.2 °F 20.8 °F 64% 29.80 in 10.0 mi West 5.8 mph - N/A   Clear
10:55 PM 32.4 °F 29.1 °F 21.0 °F 63% 29.81 in 10.0 mi West 3.5 mph - N/A   Clear
11:15 PM 29.8 °F - 20.1 °F 67% 29.81 in 10.0 mi Calm Calm - N/A   Clear
11:35 PM 34.5 °F 27.9 °F 23.0 °F 63% 29.81 in 10.0 mi WSW 8.1 mph - N/A   Clear
11:55 PM 33.8 °F 25.8 °F 22.5 °F 63% 29.81 in 10.0 mi WSW 10.4 mph - N/A   Clear